Megeve, France 16 day weather forecast

Slopes altitude range 850 m - 2355m

Number of lifts: 84 Pistes: 325km

In some cases the lift and piste totals shown are for the ski domain (e.g. Three Valleys) rather than individual resort (e.g. Courchevel)

Overview

The 16 day weather forecast is fully updated 4 times every day.

    • Sun 17 FEB 2019
    • Sun 17
    • -3C 7C
    • Mon 18 FEB 2019
    • Mon 18
    • -3C 6C
    • Tue 19 FEB 2019
    • Tue 19
    • -3C 6C
    • Wed 20 FEB 2019
    • Wed 20
    • -3C 7C
    • Thu 21 FEB 2019
    • Thu 21
    • -1C 7C
    • Fri 22 FEB 2019
    • Fri 22
    • -1C 7C
    • Sat 23 FEB 2019
    • Sat 23
    • -1C 8C
    • Sun 24 FEB 2019
    • Sun 24
    • 0C 9C
    • Mon 25 FEB 2019
    • Mon 25
    • -3C 4C
    • Tue 26 FEB 2019
    • Tue 26
    • -2C 6C
    • Wed 27 FEB 2019
    • Wed 27
    • -1C 5C
    • Thu 28 FEB 2019
    • Thu 28
    • -2C 5C
    • Fri 01 MAR 2019
    • Fri 01
    • -1C 5C
    • Sat 02 MAR 2019
    • Sat 02
    • -2C 4C
    • Sun 03 MAR 2019
    • Sun 03
    • -1C 4C
    • Mon 04 MAR 2019
    • Mon 04
    • -2C 4C

Date:

Time Type 0°C level Temp Chill Snow Cloud Speed Gust Dir Press
12:00 2898m 7°C 7_3 0cm 0% 3mph 3mph 1025mB
15:00 2836m 7°C 7_2 0cm 0% 2mph 2mph 1024mB
18:00 2857m 7°C 7_5 0cm 0% 5mph 5mph 1025mB
21:00 1413m 0°C 0_5 0cm 0% 5mph 6mph 1026mB
0:00 1127m -2°C -2_5 0cm 0% 5mph 6mph 1026mB
3:00 1044m -2°C -2_5 0cm 0% 5mph 6mph 1026mB
6:00 1008m -2°C -2_5 0cm 0% 5mph 6mph 1025mB
9:00 2643m -3°C -3_4 0cm 0% 4mph 4mph 1024mB
12:00 2583m 6°C 6_2 0cm 6% 2mph 3mph 1022mB
15:00 2530m 6°C 6_2 0cm 82% 2mph 3mph 1021mB
18:00 2405m 6°C 6_4 0cm 78% 4mph 4mph 1023mB
21:00 1280m -1°C -1_4 0cm 65% 4mph 5mph 1024mB
0:00 1078m -2°C -2_5 0cm 63% 5mph 5mph 1025mB
3:00 979m -2°C -2_5 0cm 70% 5mph 5mph 1024mB
6:00 906m -3°C -3_5 0cm 68% 5mph 6mph 1025mB
9:00 1865m -3°C -3_3 0cm 67% 3mph 3mph 1025mB
12:00 1840m 6°C 6_1 0cm 56% 1mph 1mph 1023mB
15:00 1970m 6°C 6_1 0cm 34% 1mph 1mph 1021mB
18:00 1318m 6°C 6_4 0cm 17% 4mph 4mph 1024mB
21:00 1055m -2°C -2_5 0cm 0% 5mph 5mph 1025mB
0:00 966m -2°C -2_5 0cm 4% 5mph 5mph 1025mB
3:00 919m -3°C -3_5 0cm 39% 5mph 5mph 1025mB
6:00 909m -3°C -3_5 0cm 52% 5mph 5mph 1026mB
9:00 1996m -3°C -3_3 0cm 79% 3mph 3mph 1026mB
12:00 2069m 7°C 7_1 0cm 72% 1mph 1mph 1025mB
15:00 2040m 7°C 7_1 0cm 2% 1mph 2mph 1024mB
18:00 2038m 7°C 7_4 0cm 11% 4mph 4mph 1027mB
21:00 1291m -1°C -1_5 0cm 57% 5mph 5mph 1028mB
0:00 1241m -1°C -1_4 0cm 55% 4mph 5mph 1029mB
3:00 1132m -1°C -1_4 0cm 24% 4mph 5mph 1029mB
6:00 1104m -1°C -1_4 0cm 32% 4mph 5mph 1029mB
9:00 2148m -2°C -2_3 0cm 67% 3mph 3mph 1029mB
12:00 2304m 7°C 7_2 0cm 65% 2mph 2mph 1028mB
15:00 2246m 7°C 7_2 0cm 72% 2mph 3mph 1027mB
18:00 2325m 7°C 7_4 0cm 74% 4mph 4mph 1030mB
21:00 1464m 0°C 0_4 0cm 46% 4mph 5mph 1031mB
0:00 1418m 0°C 0_4 0cm 23% 4mph 5mph 1031mB
3:00 1372m -1°C -1_4 0cm 0% 4mph 5mph 1031mB
6:00 1322m -1°C -1_5 0cm 5% 5mph 5mph 1031mB
9:00 2689m -1°C -1_4 0cm 0% 4mph 6mph 1030mB
12:00 3010m 7°C 7_6 0cm 0% 6mph 9mph 1028mB
15:00 3101m 7°C 7_6 0cm 0% 6mph 10mph 1027mB
18:00 3176m 7°C 7_5 0cm 0% 5mph 6mph 1029mB
21:00 1572m 0°C 0_5 0cm 0% 5mph 5mph 1030mB
0:00 1542m -1°C -1_4 0cm 0% 4mph 5mph 1031mB
3:00 1549m -1°C -1_4 0cm 0% 4mph 5mph 1031mB
6:00 1526m -1°C -1_4 0cm 0% 4mph 5mph 1032mB
9:00 2359m -1°C -1_2 0cm 0% 2mph 3mph 1033mB
12:00 2456m 8°C 8_2 0cm 0% 2mph 1mph 1032mB
15:00 2251m 8°C 8_2 0cm 0% 2mph 3mph 1031mB
18:00 2535m 8°C 8_4 0cm 0% 4mph 4mph 1034mB
21:00 2975m 1°C 1_4 0cm 1% 4mph 5mph 1035mB
0:00 2679m 1°C 1_4 0cm 1% 4mph 5mph 1036mB
3:00 1912m 0°C 0_5 0cm 1% 5mph 5mph 1037mB
6:00 1459m 0°C 0_5 0cm 1% 5mph 5mph 1038mB
9:00 2972m 0°C 0_3 0cm 0% 3mph 4mph 1038mB
12:00 3104m 9°C 9_2 0cm 0% 2mph 2mph 1036mB
15:00 3192m 9°C 9_2 0cm 0% 2mph 3mph 1035mB
18:00 3319m 9°C 9_3 0cm 0% 3mph 4mph 1036mB
21:00 1980m -2°C -2_2 0cm 0% 2mph 2mph 1037mB
0:00 2002m -2°C -2_3 0cm 0% 3mph 3mph 1036mB
3:00 1916m -3°C -3_3 0cm 0% 3mph 3mph 1036mB
6:00 1830m -3°C -3_2 0cm 0% 2mph 2mph 1036mB
9:00 3624m -3°C -3_1 0cm 0% 1mph 2mph 1035mB
12:00 3624m 4°C 4_3 0cm 0% 3mph 3mph 1033mB
15:00 3601m 5°C 5_4 0cm 0% 4mph 4mph 1031mB
18:00 2041m 5°C 5_2 0cm 0% 2mph 2mph 1032mB
21:00 2036m -2°C -2_3 0cm 0% 3mph 3mph 1032mB
0:00 2066m -2°C -2_4 0cm 0% 4mph 4mph 1031mB
3:00 2048m -2°C -2_4 0cm 0% 4mph 5mph 1029mB
6:00 1994m -2°C -2_5 0cm 0% 5mph 5mph 1029mB
9:00 3233m -2°C -2_5 0cm 0% 5mph 5mph 1028mB
12:00 3240m 6°C 6_1 0cm 0% 1mph 2mph 1027mB
15:00 3131m 6°C 6_2 0cm 0% 2mph 3mph 1026mB
18:00 2125m 6°C 6_3 0cm 0% 3mph 3mph 1028mB
21:00 2095m -1°C -1_4 0cm 0% 4mph 4mph 1029mB
0:00 2112m -1°C -1_4 0cm 0% 4mph 5mph 1030mB
3:00 2059m -1°C -1_5 0cm 0% 5mph 6mph 1030mB
6:00 1962m -2°C -2_6 0cm 0% 6mph 7mph 1032mB
Afternoon 0mm 0 2380m 5°C 5_1 0cm 0% 1mph 2mph 1032mB
Morning 0mm 0 1586m -2°C -2_3 0cm 0% 3mph 4mph 1033mB
Afternoon 0mm 0 2635m 5°C 5_4 0cm 11% 4mph 5mph 1031mB
Morning 0mm 0 1798m -1°C -1_4 0cm 0% 4mph 5mph 1030mB
Afternoon 0mm 0 2317m 5°C 5_2 0cm 0% 2mph 3mph 1029mB
Morning 0mm 0 1551m -2°C -2_3 0cm 0% 3mph 3mph 1033mB
Afternoon 0mm 0 2124m 4°C 4_4 0cm 0% 4mph 5mph 1034mB
Morning 0mm 0 1722m -1°C -1_6 0cm 31% 6mph 6mph 1036mB
Afternoon 0.0104167mm 0 2291m 4°C 4_1 0cm 58% 1mph 2mph 1034mB
Morning 0mm 0 1621m -2°C -2_4 0cm 35% 4mph 5mph 1033mB
Afternoon 0mm 0 1684m 4°C 4_4 0cm 2% 4mph 5mph 1028mB
Morning 0mm 0 1315m -4°C -4_4 0cm 6% 4mph 6mph 1027mB

16 day outlook at a glance

Forecast issued: 2/17/2019 2:02:57 PM

Chat

Your comments and questions. In a resort? Let us know what it's like!


Characters left 250

For terms and conditions see Readers Comments on the Cookie and privacy policy page.